Time,TemperatureF,DewpointF,PressureIn,WindDirection,WindDirectionDegrees,WindSpeedMPH,WindSpeedGustMPH,Humidity,HourlyPrecipIn,Conditions,Clouds,dailyrainin,SolarRadiationWatts/m^2,SoftwareType,DateUTC
2013-02-14 00:00:00,29.9,28.6,30.21,SW,228,1.0,1.0,95,0.00,,,0.00,0,Wunderground v.1.15,2013-02-14 08:00:00,
2013-02-14 00:10:00,29.6,28.6,30.21,SW,228,0.0,0.0,96,0.00,,,0.00,0,Wunderground v.1.15,2013-02-14 08:10:00,
2013-02-14 00:20:00,29.1,28.1,30.21,SW,228,0.0,0.0,96,0.00,,,0.00,0,Wunderground v.1.15,2013-02-14 08:20:00,
2013-02-14 00:30:00,29.0,28.3,30.21,SW,228,0.0,0.0,97,0.00,,,0.00,0,Wunderground v.1.15,2013-02-14 08:30:00,
2013-02-14 00:45:00,28.0,27.5,30.21,SW,220,0.0,0.0,98,0.00,,,0.00,0,Wunderground v.1.15,2013-02-14 08:45:00,
2013-02-14 00:50:00,28.2,28.0,30.22,SW,225,2.0,2.0,99,0.00,,,0.00,0,Wunderground v.1.15,2013-02-14 08:50:00,
2013-02-14 01:05:00,28.5,28.3,30.22,SW,226,0.0,0.0,99,0.00,,,0.00,0,Wunderground v.1.15,2013-02-14 09:05:00,
2013-02-14 01:10:00,27.9,27.4,30.22,SW,226,1.0,1.0,98,0.00,,,0.00,0,Wunderground v.1.15,2013-02-14 09:10:00,
2013-02-14 01:20:00,27.6,27.4,30.22,SW,226,0.0,0.0,99,0.00,,,0.00,0,Wunderground v.1.15,2013-02-14 09:20:00,
2013-02-14 01:30:00,27.0,26.8,30.22,SW,226,0.0,0.0,99,0.00,,,0.00,0,Wunderground v.1.15,2013-02-14 09:30:00,
2013-02-14 01:40:00,26.8,26.8,30.22,SW,226,0.0,0.0,100,0.00,,,0.00,0,Wunderground v.1.15,2013-02-14 09:40:00,
2013-02-14 01:50:00,26.7,26.7,30.22,SW,226,0.0,0.0,100,0.00,,,0.00,0,Wunderground v.1.15,2013-02-14 09:50:00,
2013-02-14 02:00:00,26.8,26.8,30.23,SW,226,0.0,0.0,100,0.00,,,0.00,0,Wunderground v.1.15,2013-02-14 10:00:00,
2013-02-14 02:10:00,26.4,26.4,30.23,SW,226,2.0,2.0,100,0.00,,,0.00,0,Wunderground v.1.15,2013-02-14 10:10:00,
2013-02-14 02:20:00,26.0,26.0,30.23,SW,226,2.0,2.0,100,0.00,,,0.00,0,Wunderground v.1.15,2013-02-14 10:20:00,
2013-02-14 02:30:00,25.9,25.9,30.23,SW,226,0.0,0.0,100,0.00,,,0.00,0,Wunderground v.1.15,2013-02-14 10:30:00,
2013-02-14 02:40:00,25.8,25.8,30.23,SW,226,2.0,2.0,100,0.00,,,0.00,0,Wunderground v.1.15,2013-02-14 10:40:00,
2013-02-14 02:50:00,25.6,25.6,30.23,SW,226,0.0,0.0,100,0.00,,,0.00,0,Wunderground v.1.15,2013-02-14 10:50:00,
2013-02-14 03:00:00,25.6,25.6,30.23,SW,226,0.0,0.0,100,0.00,,,0.00,0,Wunderground v.1.15,2013-02-14 11:00:00,
2013-02-14 03:10:00,25.2,25.2,30.23,SW,226,0.0,0.0,100,0.00,,,0.00,0,Wunderground v.1.15,2013-02-14 11:10:00,
2013-02-14 03:20:00,24.9,24.9,30.23,SW,226,0.0,0.0,100,0.00,,,0.00,0,Wunderground v.1.15,2013-02-14 11:20:00,
2013-02-14 03:35:00,24.7,24.7,30.24,SW,226,0.0,0.0,100,0.00,,,0.00,0,Wunderground v.1.15,2013-02-14 11:35:00,
2013-02-14 03:40:00,24.7,24.7,30.24,SW,226,0.0,0.0,100,0.00,,,0.00,0,Wunderground v.1.15,2013-02-14 11:40:00,
2013-02-14 03:55:00,24.7,24.7,30.24,SW,226,0.0,0.0,100,0.00,,,0.00,0,Wunderground v.1.15,2013-02-14 11:55:00,
2013-02-14 04:00:00,24.8,24.8,30.24,SW,226,0.0,0.0,100,0.00,,,0.00,0,Wunderground v.1.15,2013-02-14 12:00:00,
2013-02-14 04:10:00,24.9,24.9,30.24,SW,226,1.0,1.0,100,0.00,,,0.00,0,Wunderground v.1.15,2013-02-14 12:10:00,
2013-02-14 04:25:00,24.3,24.3,30.24,SW,226,0.0,0.0,100,0.00,,,0.00,0,Wunderground v.1.15,2013-02-14 12:25:00,
2013-02-14 04:35:00,24.1,24.1,30.24,SW,226,0.0,0.0,100,0.00,,,0.00,0,Wunderground v.1.15,2013-02-14 12:35:00,
2013-02-14 04:40:00,24.0,24.0,30.24,SW,226,0.0,0.0,100,0.00,,,0.00,0,Wunderground v.1.15,2013-02-14 12:40:00,
2013-02-14 04:50:00,23.8,23.8,30.24,SW,226,0.0,0.0,100,0.00,,,0.00,0,Wunderground v.1.15,2013-02-14 12:50:00,
2013-02-14 05:00:00,23.8,23.8,30.24,SW,226,0.0,0.0,100,0.00,,,0.00,0,Wunderground v.1.15,2013-02-14 13:00:00,
2013-02-14 05:10:00,23.7,23.7,30.24,SW,226,0.0,0.0,100,0.00,,,0.00,0,Wunderground v.1.15,2013-02-14 13:10:00,
2013-02-14 05:25:00,23.5,23.5,30.24,SW,226,0.0,0.0,100,0.00,,,0.00,0,Wunderground v.1.15,2013-02-14 13:25:00,
2013-02-14 05:30:00,23.5,23.5,30.24,SW,226,0.0,0.0,100,0.00,,,0.00,0,Wunderground v.1.15,2013-02-14 13:30:00,
2013-02-14 05:45:00,23.1,23.1,30.24,SW,226,0.0,0.0,100,0.00,,,0.00,0,Wunderground v.1.15,2013-02-14 13:45:00,
2013-02-14 05:50:00,23.0,23.0,30.25,SW,226,0.0,0.0,100,0.00,,,0.00,0,Wunderground v.1.15,2013-02-14 13:50:00,
2013-02-14 06:05:00,22.9,22.9,30.25,SW,226,0.0,0.0,100,0.00,,,0.00,0,Wunderground v.1.15,2013-02-14 14:05:00,
2013-02-14 06:10:00,22.8,22.8,30.25,SW,226,0.0,0.0,100,0.00,,,0.00,0,Wunderground v.1.15,2013-02-14 14:10:00,
2013-02-14 06:25:00,23.0,23.0,30.25,SW,226,0.0,0.0,100,0.00,,,0.00,0,Wunderground v.1.15,2013-02-14 14:25:00,
2013-02-14 06:30:00,22.8,22.8,30.25,SW,226,0.0,0.0,100,0.00,,,0.00,0,Wunderground v.1.15,2013-02-14 14:30:00,
2013-02-14 06:40:00,22.5,22.5,30.25,SW,226,0.0,0.0,100,0.00,,,0.00,0,Wunderground v.1.15,2013-02-14 14:40:00,
2013-02-14 06:50:00,22.2,22.2,30.25,WSW,245,1.0,3.0,100,0.00,,,0.00,0,Wunderground v.1.15,2013-02-14 14:50:00,
2013-02-14 07:00:00,21.8,21.8,30.25,WSW,245,0.0,0.0,100,0.00,,,0.00,0,Wunderground v.1.15,2013-02-14 15:00:00,
2013-02-14 07:15:00,22.2,22.2,30.26,West,265,1.0,1.0,100,0.00,,,0.00,0,Wunderground v.1.15,2013-02-14 15:15:00,
2013-02-14 07:20:00,22.3,22.3,30.26,NW,319,2.0,2.0,100,0.00,,,0.00,0,Wunderground v.1.15,2013-02-14 15:20:00,
2013-02-14 07:30:00,22.5,22.5,30.26,NW,319,0.0,0.0,100,0.00,,,0.00,0,Wunderground v.1.15,2013-02-14 15:30:00,
2013-02-14 07:40:00,22.7,22.7,30.26,NW,319,0.0,0.0,100,0.00,,,0.00,0,Wunderground v.1.15,2013-02-14 15:40:00,
2013-02-14 07:50:00,23.9,23.9,30.26,NW,316,0.0,0.0,100,0.00,,,0.00,0,Wunderground v.1.15,2013-02-14 15:50:00,
2013-02-14 08:00:00,25.4,25.4,30.27,NW,316,0.0,0.0,100,0.00,,,0.00,0,Wunderground v.1.15,2013-02-14 16:00:00,
2013-02-14 08:10:00,26.2,26.2,30.27,NW,316,0.0,0.0,100,0.00,,,0.00,0,Wunderground v.1.15,2013-02-14 16:10:00,
2013-02-14 08:20:00,27.3,27.3,30.27,NW,316,0.0,0.0,100,0.00,,,0.00,0,Wunderground v.1.15,2013-02-14 16:20:00,
2013-02-14 08:35:00,29.6,29.6,30.28,NW,316,0.0,0.0,100,0.00,,,0.00,0,Wunderground v.1.15,2013-02-14 16:35:00,
2013-02-14 08:40:00,30.6,30.4,30.28,NW,316,0.0,0.0,99,0.00,,,0.00,0,Wunderground v.1.15,2013-02-14 16:40:00,
2013-02-14 08:50:00,33.1,32.3,30.28,NW,316,0.0,0.0,97,0.00,,,0.00,0,Wunderground v.1.15,2013-02-14 16:50:00,
2013-02-14 09:00:00,34.7,33.4,30.28,NW,316,0.0,0.0,95,0.00,,,0.00,0,Wunderground v.1.15,2013-02-14 17:00:00,
2013-02-14 09:11:00,35.8,33.7,30.28,NW,316,0.0,0.0,92,0.00,,,0.00,0,Wunderground v.1.15,2013-02-14 17:11:00,
2013-02-14 09:20:00,37.2,34.5,30.28,NW,316,0.0,0.0,90,0.00,,,0.00,0,Wunderground v.1.15,2013-02-14 17:20:00,
2013-02-14 09:35:00,39.7,36.4,30.27,NW,316,0.0,0.0,88,0.00,,,0.00,0,Wunderground v.1.15,2013-02-14 17:35:00,
2013-02-14 09:40:00,40.7,36.8,30.28,NW,316,0.0,0.0,86,0.00,,,0.00,0,Wunderground v.1.15,2013-02-14 17:40:00,
2013-02-14 09:50:00,41.8,37.0,30.27,North,351,1.0,1.0,83,0.00,,,0.00,0,Wunderground v.1.15,2013-02-14 17:50:00,
2013-02-14 10:00:00,42.3,37.2,30.27,NE,55,2.0,2.0,82,0.00,,,0.00,0,Wunderground v.1.15,2013-02-14 18:00:00,
2013-02-14 10:10:00,43.5,37.7,30.27,ENE,64,0.0,0.0,80,0.00,,,0.00,0,Wunderground v.1.15,2013-02-14 18:10:00,
2013-02-14 10:20:00,44.7,38.3,30.27,East,83,0.0,0.0,78,0.00,,,0.00,0,Wunderground v.1.15,2013-02-14 18:20:00,
2013-02-14 10:31:00,45.8,38.7,30.27,SE,136,1.0,1.0,76,0.00,,,0.00,0,Wunderground v.1.15,2013-02-14 18:31:00,
2013-02-14 10:40:00,46.7,38.1,30.27,ESE,105,2.0,2.0,72,0.00,,,0.00,0,Wunderground v.1.15,2013-02-14 18:40:00,
2013-02-14 10:50:00,46.9,38.0,30.27,East,83,1.0,4.0,71,0.00,,,0.00,0,Wunderground v.1.15,2013-02-14 18:50:00,
2013-02-14 11:05:00,47.6,39.0,30.27,NNE,27,2.0,2.0,72,0.00,,,0.00,0,Wunderground v.1.15,2013-02-14 19:05:00,
2013-02-14 11:10:00,47.7,39.1,30.27,NE,42,5.0,5.0,72,0.00,,,0.00,0,Wunderground v.1.15,2013-02-14 19:10:00,
2013-02-14 11:25:00,47.8,39.2,30.27,ESE,109,2.0,2.0,72,0.00,,,0.00,0,Wunderground v.1.15,2013-02-14 19:25:00,
2013-02-14 11:30:00,48.3,39.3,30.27,ENE,67,6.0,6.0,71,0.00,,,0.00,0,Wunderground v.1.15,2013-02-14 19:30:00,
2013-02-14 11:41:00,48.9,39.5,30.27,SSE,150,2.0,3.0,70,0.00,,,0.00,0,Wunderground v.1.15,2013-02-14 19:41:00,
2013-02-14 11:50:00,50.1,39.6,30.26,ESE,102,1.0,3.0,67,0.00,,,0.00,0,Wunderground v.1.15,2013-02-14 19:50:00,
2013-02-14 12:00:00,51.4,40.4,30.27,ESE,102,0.0,0.0,66,0.00,,,0.00,0,Wunderground v.1.15,2013-02-14 20:00:00,
2013-02-14 12:10:00,51.7,39.9,30.27,ENE,62,2.0,2.0,64,0.00,,,0.00,0,Wunderground v.1.15,2013-02-14 20:10:00,
2013-02-14 12:20:00,51.4,40.0,30.27,NE,48,2.0,2.0,65,0.00,,,0.00,0,Wunderground v.1.15,2013-02-14 20:20:00,
2013-02-14 12:30:00,51.3,39.5,30.26,NE,40,3.0,3.0,64,0.00,,,0.00,0,Wunderground v.1.15,2013-02-14 20:30:00,
2013-02-14 12:45:00,51.1,39.7,30.26,East,83,7.0,7.0,65,0.00,,,0.00,0,Wunderground v.1.15,2013-02-14 20:45:00,
2013-02-14 12:50:00,50.8,39.5,30.26,South,186,4.0,7.0,65,0.00,,,0.00,0,Wunderground v.1.15,2013-02-14 20:50:00,
2013-02-14 13:05:00,52.2,40.0,30.25,East,98,2.0,2.0,63,0.00,,,0.00,0,Wunderground v.1.15,2013-02-14 21:05:00,
2013-02-14 13:15:00,52.8,40.1,30.25,SSE,163,3.0,3.0,62,0.00,,,0.00,0,Wunderground v.1.15,2013-02-14 21:15:00,
2013-02-14 13:25:00,53.6,40.9,30.25,NE,38,0.0,0.0,62,0.00,,,0.00,0,Wunderground v.1.15,2013-02-14 21:25:00,
2013-02-14 13:30:00,54.1,40.9,30.25,SE,125,4.0,4.0,61,0.00,,,0.00,0,Wunderground v.1.15,2013-02-14 21:30:00,
2013-02-14 13:40:00,53.6,40.5,30.25,North,3,3.0,4.0,61,0.00,,,0.00,0,Wunderground v.1.15,2013-02-14 21:40:00,
2013-02-14 13:50:00,52.7,40.5,30.25,NE,39,4.0,6.0,63,0.00,,,0.00,0,Wunderground v.1.15,2013-02-14 21:50:00,
2013-02-14 14:05:00,53.5,41.2,30.23,NE,52,5.0,5.0,63,0.00,,,0.00,0,Wunderground v.1.15,2013-02-14 22:05:00,
2013-02-14 14:11:00,53.5,41.2,30.24,NE,53,4.0,5.0,63,0.00,,,0.00,0,Wunderground v.1.15,2013-02-14 22:11:00,
2013-02-14 14:20:00,53.7,41.4,30.23,NE,53,4.0,4.0,63,0.00,,,0.00,0,Wunderground v.1.15,2013-02-14 22:20:00,
2013-02-14 14:35:00,53.6,40.9,30.23,ESE,103,2.0,2.0,62,0.00,,,0.00,0,Wunderground v.1.15,2013-02-14 22:35:00,
2013-02-14 14:40:00,53.6,40.9,30.23,East,98,4.0,4.0,62,0.00,,,0.00,0,Wunderground v.1.15,2013-02-14 22:40:00,
2013-02-14 14:50:00,54.0,41.3,30.23,ENE,75,0.0,2.0,62,0.00,,,0.00,0,Wunderground v.1.15,2013-02-14 22:50:00,
2013-02-14 15:05:00,54.6,41.4,30.22,East,82,1.0,1.0,61,0.00,,,0.00,0,Wunderground v.1.15,2013-02-14 23:05:00,
2013-02-14 15:15:00,54.6,41.4,30.23,SSE,164,0.0,0.0,61,0.00,,,0.00,0,Wunderground v.1.15,2013-02-14 23:15:00,
2013-02-14 15:20:00,54.4,41.6,30.23,NNE,16,0.0,0.0,62,0.00,,,0.00,0,Wunderground v.1.15,2013-02-14 23:20:00,
2013-02-14 15:30:00,55.4,42.2,30.23,NNE,16,0.0,0.0,61,0.00,,,0.00,0,Wunderground v.1.15,2013-02-14 23:30:00,
2013-02-14 15:40:00,55.1,42.3,30.23,WNW,286,1.0,2.0,62,0.00,,,0.00,0,Wunderground v.1.15,2013-02-14 23:40:00,
2013-02-14 15:50:00,54.2,42.3,30.23,NW,321,5.0,5.0,64,0.00,,,0.00,0,Wunderground v.1.15,2013-02-14 23:50:00,
2013-02-14 16:00:00,54.4,42.9,30.23,NW,326,10.0,10.0,65,0.00,,,0.00,0,Wunderground v.1.15,2013-02-15 00:00:00,
2013-02-14 16:15:00,54.0,42.9,30.23,North,358,2.0,2.0,66,0.00,,,0.00,0,Wunderground v.1.15,2013-02-15 00:15:00,
2013-02-14 16:20:00,53.9,42.0,30.23,North,356,4.0,4.0,64,0.00,,,0.00,0,Wunderground v.1.15,2013-02-15 00:20:00,
2013-02-14 16:31:00,53.6,42.1,30.23,North,11,1.0,5.0,65,0.00,,,0.00,0,Wunderground v.1.15,2013-02-15 00:31:00,
2013-02-14 16:40:00,53.5,41.6,30.23,North,9,1.0,4.0,64,0.00,,,0.00,0,Wunderground v.1.15,2013-02-15 00:40:00,
2013-02-14 16:50:00,53.0,41.1,30.23,North,11,0.0,4.0,64,0.00,,,0.00,0,Wunderground v.1.15,2013-02-15 00:50:00,
2013-02-14 17:05:00,52.5,41.1,30.23,North,11,0.0,0.0,65,0.00,,,0.00,0,Wunderground v.1.15,2013-02-15 01:05:00,
2013-02-14 17:15:00,51.9,40.9,30.23,North,8,0.0,0.0,66,0.00,,,0.00,0,Wunderground v.1.15,2013-02-15 01:15:00,
2013-02-14 17:20:00,51.3,40.3,30.23,North,7,2.0,2.0,66,0.00,,,0.00,0,Wunderground v.1.15,2013-02-15 01:20:00,
2013-02-14 17:35:00,50.1,39.9,30.23,North,7,0.0,0.0,68,0.00,,,0.00,0,Wunderground v.1.15,2013-02-15 01:35:00,
2013-02-14 17:40:00,49.4,39.7,30.23,North,7,0.0,0.0,69,0.00,,,0.00,0,Wunderground v.1.15,2013-02-15 01:40:00,
2013-02-14 17:50:00,47.2,39.0,30.24,North,7,0.0,0.0,73,0.00,,,0.00,0,Wunderground v.1.15,2013-02-15 01:50:00,
2013-02-14 18:01:00,47.5,39.6,30.24,North,5,0.0,0.0,74,0.00,,,0.00,0,Wunderground v.1.15,2013-02-15 02:01:00,
2013-02-14 18:15:00,46.9,39.7,30.25,North,5,0.0,0.0,76,0.00,,,0.00,0,Wunderground v.1.15,2013-02-15 02:15:00,
2013-02-14 18:20:00,46.4,39.2,30.25,North,5,0.0,0.0,76,0.00,,,0.00,0,Wunderground v.1.15,2013-02-15 02:20:00,
2013-02-14 18:31:00,45.9,39.4,30.25,North,5,0.0,0.0,78,0.00,,,0.00,0,Wunderground v.1.15,2013-02-15 02:31:00,
2013-02-14 18:40:00,44.5,38.4,30.25,North,5,0.0,0.0,79,0.00,,,0.00,0,Wunderground v.1.15,2013-02-15 02:40:00,
2013-02-14 18:50:00,43.4,38.3,30.25,North,5,0.0,0.0,82,0.00,,,0.00,0,Wunderground v.1.15,2013-02-15 02:50:00,
2013-02-14 19:00:00,41.9,37.1,30.26,WNW,298,1.0,1.0,83,0.00,,,0.00,0,Wunderground v.1.15,2013-02-15 03:00:00,
2013-02-14 19:10:00,40.4,36.8,30.26,WSW,247,0.0,0.0,87,0.00,,,0.00,0,Wunderground v.1.15,2013-02-15 03:10:00,
2013-02-14 19:20:00,39.3,35.5,30.26,WSW,247,0.0,0.0,86,0.00,,,0.00,0,Wunderground v.1.15,2013-02-15 03:20:00,
2013-02-14 19:30:00,38.2,35.0,30.26,WSW,247,0.0,0.0,88,0.00,,,0.00,0,Wunderground v.1.15,2013-02-15 03:30:00,
2013-02-14 19:40:00,37.6,34.7,30.26,WSW,247,2.0,2.0,89,0.00,,,0.00,0,Wunderground v.1.15,2013-02-15 03:40:00,
2013-02-14 19:50:00,36.5,33.8,30.26,WSW,247,0.0,2.0,90,0.00,,,0.00,0,Wunderground v.1.15,2013-02-15 03:50:00,
2013-02-14 20:00:00,35.7,33.3,30.26,WSW,247,0.0,0.0,91,0.00,,,0.00,0,Wunderground v.1.15,2013-02-15 04:00:00,
2013-02-14 20:10:00,34.7,32.3,30.26,WSW,247,0.0,0.0,91,0.00,,,0.00,0,Wunderground v.1.15,2013-02-15 04:10:00,
2013-02-14 20:20:00,33.8,32.0,30.26,WSW,247,0.0,0.0,93,0.00,,,0.00,0,Wunderground v.1.15,2013-02-15 04:20:00,
2013-02-14 20:30:00,33.2,31.7,30.26,WSW,247,0.0,0.0,94,0.00,,,0.00,0,Wunderground v.1.15,2013-02-15 04:30:00,
2013-02-14 20:40:00,32.8,31.5,30.27,WSW,247,3.0,3.0,95,0.00,,,0.00,0,Wunderground v.1.15,2013-02-15 04:40:00,
2013-02-14 20:50:00,31.9,30.6,30.27,WSW,247,0.0,0.0,95,0.00,,,0.00,0,Wunderground v.1.15,2013-02-15 04:50:00,
2013-02-14 21:00:00,31.3,30.3,30.27,WSW,247,0.0,0.0,96,0.00,,,0.00,0,Wunderground v.1.15,2013-02-15 05:00:00,
2013-02-14 21:05:00,31.0,30.0,30.27,WSW,247,0.0,0.0,96,0.00,,,0.00,0,Wunderground v.1.15,2013-02-15 05:05:00,
2013-02-14 21:10:00,30.5,29.8,30.26,WSW,248,0.0,0.0,97,0.00,,,0.00,0,Wunderground v.1.15,2013-02-15 05:10:00,
2013-02-14 21:15:00,30.4,29.7,30.27,WSW,247,0.0,0.0,97,0.00,,,0.00,0,Wunderground v.1.15,2013-02-15 05:15:00,
2013-02-14 21:20:00,29.8,29.1,30.26,WSW,247,1.0,1.0,97,0.00,,,0.00,0,Wunderground v.1.15,2013-02-15 05:20:00,
2013-02-14 21:30:00,29.3,28.8,30.27,WSW,248,1.0,1.0,98,0.00,,,0.00,0,Wunderground v.1.15,2013-02-15 05:30:00,
2013-02-14 21:40:00,29.1,28.9,30.27,WSW,247,0.0,0.0,99,0.00,,,0.00,0,Wunderground v.1.15,2013-02-15 05:40:00,
2013-02-14 21:50:00,29.0,29.0,30.27,WSW,247,3.0,3.0,100,0.00,,,0.00,0,Wunderground v.1.15,2013-02-15 05:50:00,
2013-02-14 22:00:00,28.6,28.6,30.27,WSW,247,1.0,1.0,100,0.00,,,0.00,0,Wunderground v.1.15,2013-02-15 06:00:00,
2013-02-14 22:10:00,28.5,28.5,30.27,WSW,247,0.0,0.0,100,0.00,,,0.00,0,Wunderground v.1.15,2013-02-15 06:10:00,
2013-02-14 22:20:00,28.4,28.4,30.26,WSW,247,0.0,0.0,100,0.00,,,0.00,0,Wunderground v.1.15,2013-02-15 06:20:00,
2013-02-14 22:30:00,27.8,27.8,30.26,WSW,248,0.0,0.0,100,0.00,,,0.00,0,Wunderground v.1.15,2013-02-15 06:30:00,
2013-02-14 22:40:00,27.5,27.5,30.26,WSW,248,0.0,0.0,100,0.00,,,0.00,0,Wunderground v.1.15,2013-02-15 06:40:00,
2013-02-14 22:50:00,27.0,27.0,30.26,WSW,248,0.0,0.0,100,0.00,,,0.00,0,Wunderground v.1.15,2013-02-15 06:50:00,
2013-02-14 23:00:00,26.7,26.7,30.26,WSW,248,0.0,0.0,100,0.00,,,0.00,0,Wunderground v.1.15,2013-02-15 07:00:00,
2013-02-14 23:10:00,26.6,26.6,30.27,WSW,248,0.0,0.0,100,0.00,,,0.00,0,Wunderground v.1.15,2013-02-15 07:10:00,
2013-02-14 23:20:00,26.4,26.4,30.26,WSW,249,2.0,2.0,100,0.00,,,0.00,0,Wunderground v.1.15,2013-02-15 07:20:00,
2013-02-14 23:30:00,26.3,26.3,30.26,WSW,249,0.0,0.0,100,0.00,,,0.00,0,Wunderground v.1.15,2013-02-15 07:30:00,
2013-02-14 23:40:00,26.3,26.3,30.27,WSW,249,2.0,2.0,100,0.00,,,0.00,0,Wunderground v.1.15,2013-02-15 07:40:00,
2013-02-14 23:50:00,26.1,26.1,30.26,WSW,249,0.0,0.0,100,0.00,,,0.00,0,Wunderground v.1.15,2013-02-15 07:50:00,